Flag for France Weather past 2 weeks in Royan, France

Now
72 °F

Clear.


Feels Like: 77 °F
Forecast: 56 / 65 °F
Wind: 13 mph from West

Location: Cognac Airport

Current Time: Apr 25, 2015 at 6:26:50 PM

Latest Report: Apr 25, 2015 at 6:00 PM


Visibility: N/A

Pressure: 29.83 "Hg

Humidity: 44%

Dew point: 48 °F

Location of RoyanLocation

Historic Weather in Royan — Graph

°F

Royan temperature yesterday

Maximum temperature yesterday: 72 °F (at 3:30 PM)
Minimum temperature yesterday: 50 °F (at 6:30 AM)
Average temperature yesterday: 61 °F

Past Weeks' High & Low Weather Summary

 TemperatureHumidityPressure
High84 °F (Apr 15, 4:30 PM)100% (Apr 10, 11:00 PM)30.42 "Hg (Apr 10, 11:00 PM)
Low39 °F (Apr 12, 7:00 AM)21% (Apr 14, 3:30 PM)29.83 "Hg (Apr 25, 4:00 AM)
Average60 °F69%30.11 "Hg
* Reported Apr 10 5:00 PM — Apr 25 5:30 PM, Royan, Weather by CustomWeather, © 2015

Note: Actual official high and low records may vary slightly from our data, if they occured in-between our weather recording intervals... More about our weather records

Advertising

Royan weather history for previous 24 hours

 ConditionsComfort  
Time TempWeatherWind HumidityBarometerVisibility
5:30 PM
Sat, Apr 25
72 °FPassing clouds.12 mph44%29.83 "HgN/A
5:00 PM72 °FPartly sunny.10 mph44%29.83 "HgN/A
4:30 PM72 °FPartly sunny.15 mph47%29.86 "HgN/A
4:00 PM72 °FBroken clouds.10 mph50%29.86 "HgN/A
3:30 PM70 °FPartly sunny.10 mph53%29.86 "HgN/A
3:00 PM68 °FPartly sunny.10 mph53%29.86 "HgN/A
2:30 PM68 °FBroken clouds.10 mph56%29.89 "HgN/A
2:00 PM68 °FBroken clouds.9 mph56%29.89 "HgN/A
1:30 PM68 °FPartly sunny.9 mph56%29.89 "HgN/A
1:00 PM66 °FBroken clouds.7 mph60%29.89 "HgN/A
12:30 PM64 °FMore clouds than sun.7 mph68%29.89 "HgN/A
12:00 PM64 °FClear.7 mph64%29.89 "HgN/A
11:30 AM64 °FMostly cloudy.8 mph64%29.89 "HgN/A
11:00 AM63 °FPartly sunny.6 mph73%29.89 "HgN/A
10:30 AM61 °FOvercast.7 mph77%29.89 "HgN/A
10:00 AM61 °FClear.8 mph77%29.89 "HgN/A
9:30 AM59 °FClear.7 mph88%29.89 "HgN/A
9:00 AM59 °FCool.7 mph82%29.89 "HgN/A
8:30 AM59 °FLight rain. Cloudy.7 mph88%29.89 "HgN/A
8:00 AM59 °FCool.6 mph82%29.86 "HgN/A
7:30 AM57 °FClear.3 mph88%29.86 "HgN/A
7:00 AM57 °FLight rain. Overcast.8 mph88%29.86 "HgN/A
6:30 AM57 °FClear.9 mph88%29.83 "HgN/A
6:00 AM57 °FClear.6 mph88%29.83 "HgN/A
5:30 AM57 °FLight rain. Clear.7 mph88%29.83 "HgN/A
5:00 AM59 °FClear.3 mph82%29.83 "HgN/A
4:30 AM57 °FClear.9 mph88%29.83 "HgN/A
4:00 AM57 °FLight rain. Clear.10 mph88%29.83 "HgN/A
3:00 AM59 °FLight rain. Overcast.2 mph82%29.86 "HgN/A
2:30 AM59 °FClear.5 mph82%29.86 "HgN/A
2:00 AM61 °FLight rain. Overcast.3 mph77%29.86 "HgN/A
1:30 AM61 °FClear.7 mph72%29.86 "HgN/A
1:00 AM61 °FClear.5 mph72%29.86 "HgN/A
12:30 AM61 °FCool.8 mph72%29.86 "HgN/A
12:00 AM61 °FLight rain. Overcast.5 mph77%29.89 "HgN/A
11:30 PM
Fri, Apr 24
63 °FClear.5 mph68%29.89 "HgN/A
11:00 PM63 °FClear.3 mph68%29.89 "HgN/A
10:30 PM63 °FClear.6 mph68%29.89 "HgN/A
10:00 PM64 °FClear.8 mph64%29.89 "HgN/A
9:30 PM64 °FClear.9 mph60%29.86 "HgN/A
9:00 PM66 °FClear.9 mph56%29.86 "HgN/A
8:30 PM68 °FClear.3 mph53%29.89 "HgN/A
8:00 PM68 °FClear.3 mph53%29.89 "HgN/A
7:30 PM68 °FClear.5 mph53%29.89 "HgN/A
7:00 PM70 °FClear.5 mph50%29.89 "HgN/A
6:30 PM70 °FClear.7 mph50%29.89 "HgN/A
6:00 PM70 °FClear.5 mph50%29.89 "HgN/A
Weather by CustomWeather, © 2015

See weather overviewHow to use our weather pages